[[{"header":{"parameterUnit":"m.s-1","parameterCategory":1,"la1":30.2992,"la2":30.254,"lo1":-89.0895,"lo2":-89.0443,"dy":0.0025,"dx":0.0025,"nx":19,"ny":19,"refTime":"2026-04-23T03:00:00:Z","depth":0,"parameterNumber":2,"parameterNumberName":"U-component_of_WINDS"},"data":[0,0,0,-2.4351,-2.4352,-2.441,-2.441,-2.4489,-2.4489,0,0,0,0,0,0,0,0,0,0,0,-2.4338,-2.4338,-2.4351,-2.4352,-2.441,-2.441,-2.4488,-2.4489,0,0,0,0,0,0,0,0,0,0,0,-2.4337,-2.4338,-2.4339,-2.4353,-2.441,-2.441,-2.4488,-2.4443,0,0,0,0,0,0,0,0,0,0,-2.4386,-2.4378,-2.4338,-2.4339,-2.4353,-2.441,-2.441,-2.4441,-2.4446,-2.4465,0,-2.4483,0,-2.4488,-2.4495,-2.4495,0,0,0,-2.435,-2.4374,-2.4386,-2.4339,-2.4354,-2.441,-2.4383,-2.4443,-2.4449,-2.4472,-2.4484,-2.4487,-2.4489,-2.4495,-2.4496,-2.4616,-2.4617,0,0,-2.4346,-2.435,-2.4382,-2.439,-2.4382,-2.4381,-2.4385,-2.4447,-2.4461,-2.4485,-2.4489,-2.449,-2.4496,-2.4497,-2.4615,-2.4616,0,0,0,-2.4339,-2.4348,-2.4358,-2.4387,-2.4397,-2.4383,-2.4387,-2.4458,-2.4461,-2.449,-2.4491,-2.4496,-2.4498,-2.4615,-2.4616,-2.4653,0,0,0,-2.4337,-2.4344,-2.4357,-2.436,-2.4396,-2.4428,-2.4397,-2.4457,-2.4464,-2.4491,-2.4497,-2.4498,-2.4614,-2.4615,-2.465,-2.4669,0,0,0,-2.4333,-2.4343,-2.4353,-2.436,-2.4385,-2.4427,-2.4434,-2.4458,-2.4465,-2.4495,-2.4499,-2.4613,-2.4615,-2.4648,-2.4666,-2.4701,0,0,0,-2.4329,-2.4386,-2.4353,-2.4417,-2.4384,-2.445,-2.4433,-2.4482,-2.4513,-2.4497,-2.4614,-2.4615,-2.4647,-2.4663,-2.4699,-2.4731,-2.4745,0,0,-2.4402,-2.4395,-2.4432,-2.4405,-2.4477,-2.4441,-2.4518,-2.4543,-2.4543,-2.4591,-2.4594,-2.4651,-2.4665,-2.4701,-2.4825,-2.4836,0,0,0,-2.4456,-2.4483,-2.4501,-2.453,-2.4551,-2.4569,-2.4582,-2.459,-2.4631,-2.4569,-2.4674,-2.4682,-2.4703,-2.4718,-2.4728,-2.4744,-2.4623,-2.4623,-2.4623,-2.4565,-2.4561,-2.4622,-2.4625,-2.4654,-2.4665,-2.4688,-2.4702,-2.469,-2.4715,-2.4729,-2.4805,-2.4823,-2.483,-2.4848,-2.4747,-2.4747,-2.4747,-2.4747,-2.4672,-2.4708,-2.4691,-2.4743,-2.4739,-2.4783,-2.4796,-2.4786,-2.4826,-2.4794,-2.4812,-2.4778,-2.4843,-2.4858,-2.475,-2.475,-2.4749,-2.4749,-2.4749,-2.4742,-2.4758,-2.4768,-2.4809,-2.4841,-2.4842,-2.4881,-2.4876,-2.4871,-2.4889,-2.4902,-2.4902,-2.4899,-2.4896,-2.4896,-2.4896,-2.4896,-2.4897,-2.4897,-2.481,-2.482,-2.4853,-2.4879,-2.4896,-2.4918,-2.493,-2.4947,-2.4964,-2.4957,-2.4957,-2.4942,-2.485,-2.4827,-2.4901,-2.49,-2.49,-2.4899,-2.4899,-2.4918,-2.4893,-2.4944,-2.4961,-2.499,-2.5021,-2.5014,-2.5049,-2.5062,-2.5081,-2.5062,-2.4995,-2.4987,-2.4979,-2.4959,-2.5063,-2.5063,-2.5063,-2.5063,-2.4976,-2.4972,-2.5022,-2.505,-2.5077,-2.5075,-2.5132,-2.5142,-2.5147,-2.5155,-2.5139,-2.5113,-2.5105,-2.5101,-2.5091,-2.5072,-2.5203,-2.5203,-2.5203,-2.5042,-2.5039,-2.5089,-2.5094,-2.5116,-2.5135,-2.5188,-2.522,-2.5221,-2.5209,-2.516,-2.5154,-2.5112,-2.5099,-2.5085,-2.5069,-2.5035,0,0]},{"header":{"parameterUnit":"m.s-1","parameterCategory":1,"la1":30.2992,"la2":30.254,"lo1":-89.0895,"lo2":-89.0443,"dy":0.0025,"dx":0.0025,"nx":19,"ny":19,"refTime":"2026-04-23T03:00:00:Z","depth":0,"parameterNumber":3,"parameterNumberName":"V-component_of_WINDS"},"data":[0,0,0,3.2832,3.2835,3.294,3.294,3.3078,3.308,0,0,0,0,0,0,0,0,0,0,0,3.2805,3.2806,3.2832,3.2835,3.2939,3.294,3.3078,3.308,0,0,0,0,0,0,0,0,0,0,0,3.2804,3.2806,3.2807,3.2835,3.2939,3.294,3.3078,3.2997,0,0,0,0,0,0,0,0,0,0,3.2894,3.2873,3.2805,3.2807,3.2836,3.2939,3.294,3.2993,3.3002,3.3033,0,3.3062,0,3.3073,3.3089,3.309,0,0,0,3.2832,3.2865,3.289,3.2807,3.2837,3.2939,3.2891,3.2998,3.3008,3.3045,3.3064,3.3069,3.3076,3.309,3.3091,3.3284,3.3285,0,0,3.2826,3.2825,3.2883,3.2897,3.2882,3.2888,3.2895,3.3004,3.3025,3.3065,3.3073,3.3078,3.3091,3.3092,3.3283,3.3284,0,0,0,3.2811,3.2821,3.2844,3.2892,3.291,3.2891,3.2899,3.302,3.3027,3.3074,3.308,3.3092,3.3094,3.3282,3.3283,3.3336,0,0,0,3.2808,3.2813,3.2841,3.2842,3.2908,3.2967,3.2912,3.302,3.3032,3.3079,3.3092,3.3095,3.3281,3.3283,3.3332,3.3362,0,0,0,3.2797,3.2812,3.2828,3.2842,3.2887,3.2965,3.2978,3.3022,3.3036,3.309,3.3095,3.328,3.3282,3.3329,3.3356,3.3414,0,0,0,3.2784,3.2872,3.2829,3.2929,3.2886,3.2997,3.2978,3.306,3.3112,3.3093,3.3281,3.3283,3.3328,3.3352,3.341,3.3464,3.3486,0,0,3.2895,3.2885,3.2944,3.2909,3.3027,3.2981,3.3107,3.3154,3.3159,3.3242,3.3246,3.3334,3.3355,3.3413,3.3606,3.3624,0,0,0,3.2979,3.3021,3.3053,3.3104,3.3143,3.318,3.3209,3.3227,3.3298,3.3202,3.3369,3.3382,3.3416,3.3442,3.3457,3.3487,3.3295,3.3294,3.3294,3.3134,3.3137,3.3235,3.3251,3.3301,3.333,3.3371,3.34,3.3386,3.3426,3.3451,3.3568,3.3598,3.361,3.3641,3.3478,3.3478,3.3479,3.3479,3.3297,3.3359,3.3341,3.343,3.3432,3.3506,3.3538,3.3526,3.3596,3.3549,3.3579,3.3529,3.3629,3.3656,3.3483,3.3482,3.3482,3.3481,3.3481,3.3401,3.3431,3.3452,3.3528,3.3585,3.3597,3.3665,3.3663,3.3662,3.3692,3.372,3.3719,3.3719,3.3705,3.3705,3.3706,3.3706,3.3706,3.3707,3.3501,3.3523,3.3582,3.3632,3.3666,3.3709,3.374,3.3772,3.3808,3.3802,3.3802,3.3786,3.3637,3.3601,3.3713,3.3712,3.3711,3.371,3.371,3.3669,3.3631,3.3721,3.3755,3.3815,3.3873,3.387,3.3936,3.3963,3.3997,3.3974,3.3864,3.3854,3.3842,3.3812,3.3972,3.3972,3.3972,3.3972,3.3758,3.3753,3.3846,3.39,3.3953,3.396,3.4062,3.4087,3.4106,3.4123,3.4099,3.4059,3.4047,3.4044,3.4028,3.4,3.4204,3.4205,3.4205,3.3862,3.3862,3.395,3.397,3.4017,3.4057,3.4153,3.4216,3.423,3.4214,3.4137,3.4127,3.4062,3.404,3.4024,3.3999,3.3948,0,0]}]]